Year,Month,Day,Hour,Minute,Value (Times are PST for temperature in C)
2015,04,29,00,00,10.80
2015,04,29,00,01,10.80
2015,04,29,00,02,10.70
2015,04,29,00,03,10.70
2015,04,29,00,04,10.70
2015,04,29,00,05,10.70
2015,04,29,00,06,10.70
2015,04,29,00,07,10.70
2015,04,29,00,08,10.70
2015,04,29,00,09,10.70
2015,04,29,00,10,10.70
2015,04,29,00,11,10.70
2015,04,29,00,12,10.70
2015,04,29,00,13,10.70
2015,04,29,00,14,10.70
2015,04,29,00,15,10.70
2015,04,29,00,16,10.70
2015,04,29,00,17,10.60
2015,04,29,00,18,10.60
2015,04,29,00,19,10.60
2015,04,29,00,20,10.60
2015,04,29,00,21,10.60
2015,04,29,00,22,10.60
2015,04,29,00,23,10.60
2015,04,29,00,24,10.60
2015,04,29,00,25,10.60
2015,04,29,00,26,10.60
2015,04,29,00,27,10.60
2015,04,29,00,28,10.60
2015,04,29,00,29,10.60
2015,04,29,00,30,10.60
2015,04,29,00,31,10.60
2015,04,29,00,32,10.60
2015,04,29,00,33,10.60
2015,04,29,00,34,10.60
2015,04,29,00,35,10.60
2015,04,29,00,36,10.50
2015,04,29,00,37,10.50
2015,04,29,00,38,10.50
2015,04,29,00,39,10.50
2015,04,29,00,40,10.50
2015,04,29,00,41,10.50
2015,04,29,00,42,10.50
2015,04,29,00,43,10.50
2015,04,29,00,44,10.50
2015,04,29,00,45,10.50
2015,04,29,00,46,10.50
2015,04,29,00,47,10.50
2015,04,29,00,48,10.60
2015,04,29,00,49,10.60
2015,04,29,00,50,10.60
2015,04,29,00,51,10.60
2015,04,29,00,52,10.60
2015,04,29,00,53,10.60
2015,04,29,00,54,10.60
2015,04,29,00,55,10.60
2015,04,29,00,56,10.60
2015,04,29,00,57,10.60
2015,04,29,00,58,10.60
2015,04,29,00,59,10.60
2015,04,29,01,00,10.50
2015,04,29,01,01,10.50
2015,04,29,01,02,10.50
2015,04,29,01,03,10.50
2015,04,29,01,04,10.50
2015,04,29,01,05,10.50
2015,04,29,01,06,10.50
2015,04,29,01,07,10.40
2015,04,29,01,08,10.40
2015,04,29,01,09,10.40
2015,04,29,01,10,10.40
2015,04,29,01,11,10.40
2015,04,29,01,12,10.40
2015,04,29,01,13,10.40
2015,04,29,01,14,10.40
2015,04,29,01,15,10.40
2015,04,29,01,16,10.40
2015,04,29,01,17,10.40
2015,04,29,01,18,10.40
2015,04,29,01,19,10.40
2015,04,29,01,20,10.40
2015,04,29,01,21,10.40
2015,04,29,01,22,10.40
2015,04,29,01,23,10.40
2015,04,29,01,24,10.40
2015,04,29,01,25,10.40
2015,04,29,01,26,10.40
2015,04,29,01,27,10.40
2015,04,29,01,28,10.40
2015,04,29,01,29,10.40
2015,04,29,01,30,10.40
2015,04,29,01,31,10.40
2015,04,29,01,32,10.40
2015,04,29,01,33,10.40
2015,04,29,01,34,10.40
2015,04,29,01,35,10.40
2015,04,29,01,36,10.40
2015,04,29,01,37,10.40
2015,04,29,01,38,10.40
2015,04,29,01,39,10.40
2015,04,29,01,40,10.40
2015,04,29,01,41,10.40
2015,04,29,01,42,10.40
2015,04,29,01,43,10.40
2015,04,29,01,44,10.40
2015,04,29,01,49,10.40
2015,04,29,01,50,10.40
2015,04,29,01,51,10.40
2015,04,29,01,52,10.40
2015,04,29,01,53,10.40
2015,04,29,01,54,10.40
2015,04,29,01,55,10.40
2015,04,29,01,56,10.40
2015,04,29,01,57,10.40
2015,04,29,01,58,10.40
2015,04,29,01,59,10.40
2015,04,29,02,00,10.40
2015,04,29,02,01,10.40
2015,04,29,02,02,10.40
2015,04,29,02,03,10.40
2015,04,29,02,04,10.40
2015,04,29,02,05,10.40
2015,04,29,02,06,10.40
2015,04,29,02,07,10.40
2015,04,29,02,08,10.40
2015,04,29,02,09,10.40
2015,04,29,02,10,10.40
2015,04,29,02,11,10.40
2015,04,29,02,12,10.40
2015,04,29,02,13,10.40
2015,04,29,02,14,10.40
2015,04,29,02,15,10.40
2015,04,29,02,16,10.40
2015,04,29,02,17,10.40
2015,04,29,02,18,10.40
2015,04,29,02,19,10.40
2015,04,29,02,20,10.40
2015,04,29,02,21,10.40
2015,04,29,02,22,10.40
2015,04,29,02,23,10.40
2015,04,29,02,24,10.40
2015,04,29,02,25,10.40
2015,04,29,02,26,10.40
2015,04,29,02,27,10.40
2015,04,29,02,28,10.40
2015,04,29,02,29,10.30
2015,04,29,02,30,10.30
2015,04,29,02,31,10.30
2015,04,29,02,32,10.30
2015,04,29,02,33,10.30
2015,04,29,02,34,10.30
2015,04,29,02,35,10.30
2015,04,29,02,36,10.30
2015,04,29,02,37,10.30
2015,04,29,02,38,10.30
2015,04,29,02,39,10.30
2015,04,29,02,40,10.30
2015,04,29,02,41,10.30
2015,04,29,02,42,10.30
2015,04,29,02,43,10.30
2015,04,29,02,44,10.30
2015,04,29,02,45,10.30
2015,04,29,02,46,10.30
2015,04,29,02,47,10.30
2015,04,29,02,48,10.30
2015,04,29,02,49,10.30
2015,04,29,02,50,10.20
2015,04,29,02,51,10.20
2015,04,29,02,52,10.20
2015,04,29,02,53,10.20
2015,04,29,02,54,10.20
2015,04,29,02,55,10.20
2015,04,29,02,56,10.20
2015,04,29,02,57,10.20
2015,04,29,02,58,10.20
2015,04,29,02,59,10.20
2015,04,29,03,00,10.10
2015,04,29,03,01,10.10
2015,04,29,03,02,10.10
2015,04,29,03,03,10.10
2015,04,29,03,04,10.10
2015,04,29,03,05,10.10
2015,04,29,03,06,10.10
2015,04,29,03,07,10.00
2015,04,29,03,08,10.00
2015,04,29,03,09,10.00
2015,04,29,03,10,10.00
2015,04,29,03,11,9.90
2015,04,29,03,12,9.90
2015,04,29,03,13,9.90
2015,04,29,03,14,9.90
2015,04,29,03,15,9.90
2015,04,29,03,16,9.90
2015,04,29,03,17,9.90
2015,04,29,03,18,9.90
2015,04,29,03,19,9.80
2015,04,29,03,20,9.80
2015,04,29,03,21,9.80
2015,04,29,03,22,9.80
2015,04,29,03,23,9.80
2015,04,29,03,24,9.80
2015,04,29,03,25,9.70
2015,04,29,03,26,9.70
2015,04,29,03,27,9.70
2015,04,29,03,28,9.60
2015,04,29,03,29,9.60
2015,04,29,03,30,9.60
2015,04,29,03,31,9.60
2015,04,29,03,32,9.60
2015,04,29,03,33,9.50
2015,04,29,03,34,9.50
2015,04,29,03,35,9.50
2015,04,29,03,36,9.40
2015,04,29,03,37,9.40
2015,04,29,03,38,9.30
2015,04,29,03,39,9.30
2015,04,29,03,40,9.20
2015,04,29,03,41,9.20
2015,04,29,03,42,9.10
2015,04,29,03,43,9.10
2015,04,29,03,44,9.10
2015,04,29,03,45,9.00
2015,04,29,03,46,9.00
2015,04,29,03,47,9.00
2015,04,29,03,48,9.00
2015,04,29,03,49,9.00
2015,04,29,03,50,8.90
2015,04,29,03,51,8.90
2015,04,29,03,52,8.90
2015,04,29,03,53,8.90
2015,04,29,03,54,8.80
2015,04,29,03,55,8.80
2015,04,29,03,56,8.80
2015,04,29,03,57,8.80
2015,04,29,03,58,8.70
2015,04,29,03,59,8.70
2015,04,29,04,00,8.70
2015,04,29,04,01,8.60
2015,04,29,04,02,8.60
2015,04,29,04,03,8.60
2015,04,29,04,04,8.60
2015,04,29,04,05,8.60
2015,04,29,04,06,8.60
2015,04,29,04,07,8.60
2015,04,29,04,08,8.60
2015,04,29,04,09,8.60
2015,04,29,04,10,8.60
2015,04,29,04,11,8.60
2015,04,29,04,12,8.60
2015,04,29,04,13,8.60
2015,04,29,04,14,8.60
2015,04,29,04,15,8.60
2015,04,29,04,16,8.60
2015,04,29,04,17,8.60
2015,04,29,04,18,8.60
2015,04,29,04,19,8.60
2015,04,29,04,20,8.60
2015,04,29,04,21,8.50
2015,04,29,04,22,8.50
2015,04,29,04,23,8.50
2015,04,29,04,24,8.40
2015,04,29,04,25,8.40
2015,04,29,04,26,8.40
2015,04,29,04,27,8.40
2015,04,29,04,28,8.40
2015,04,29,04,29,8.40
2015,04,29,04,30,8.40
2015,04,29,04,31,8.40
2015,04,29,04,32,8.40
2015,04,29,04,33,8.30
2015,04,29,04,34,8.30
2015,04,29,04,35,8.30
2015,04,29,04,36,8.20
2015,04,29,04,37,8.20
2015,04,29,04,38,8.20
2015,04,29,04,39,8.20
2015,04,29,04,40,8.20
2015,04,29,04,41,8.20
2015,04,29,04,42,8.20
2015,04,29,04,43,8.10
2015,04,29,04,44,8.10
2015,04,29,04,45,8.10
2015,04,29,04,46,8.10
2015,04,29,04,47,8.00
2015,04,29,04,48,8.00
2015,04,29,04,49,8.00
2015,04,29,04,50,7.90
2015,04,29,04,51,7.90
2015,04,29,04,52,7.90
2015,04,29,04,53,7.90
2015,04,29,04,54,7.90
2015,04,29,04,55,7.90
2015,04,29,04,56,7.90
2015,04,29,04,57,7.90
2015,04,29,04,58,7.90
2015,04,29,04,59,7.90
2015,04,29,05,00,7.80
2015,04,29,05,01,7.80
2015,04,29,05,02,7.80
2015,04,29,05,03,7.80
2015,04,29,05,04,7.70
2015,04,29,05,05,7.70
2015,04,29,05,06,7.70
2015,04,29,05,07,7.60
2015,04,29,05,08,7.60
2015,04,29,05,09,7.60
2015,04,29,05,10,7.60
2015,04,29,05,11,7.50
2015,04,29,05,12,7.50
2015,04,29,05,13,7.50
2015,04,29,05,14,7.40
2015,04,29,05,15,7.40
2015,04,29,05,16,7.40
2015,04,29,05,17,7.40
2015,04,29,05,18,7.40
2015,04,29,05,19,7.30
2015,04,29,05,20,7.30
2015,04,29,05,21,7.30
2015,04,29,05,22,7.30
2015,04,29,05,23,7.20
2015,04,29,05,24,7.20
2015,04,29,05,25,7.20
2015,04,29,05,26,7.20
2015,04,29,05,27,7.20
2015,04,29,05,28,7.20
2015,04,29,05,29,7.20
2015,04,29,05,30,7.20
2015,04,29,05,31,7.20
2015,04,29,05,32,7.20
2015,04,29,05,33,7.20
2015,04,29,05,34,7.20
2015,04,29,05,35,7.20
2015,04,29,05,36,7.20
2015,04,29,05,37,7.20
2015,04,29,05,38,7.20
2015,04,29,05,39,7.20
2015,04,29,05,40,7.20
2015,04,29,05,41,7.20
2015,04,29,05,42,7.20
2015,04,29,05,43,7.20
2015,04,29,05,44,7.20
2015,04,29,05,45,7.20
2015,04,29,05,46,7.20
2015,04,29,05,47,7.20
2015,04,29,05,48,7.10
2015,04,29,05,49,7.10
2015,04,29,05,50,7.10
2015,04,29,05,51,7.10
2015,04,29,05,52,7.10
2015,04,29,05,53,7.10
2015,04,29,05,54,7.10
2015,04,29,05,55,7.10
2015,04,29,05,56,7.00
2015,04,29,05,57,7.00
2015,04,29,05,58,7.00
2015,04,29,05,59,7.00
2015,04,29,06,00,6.90
2015,04,29,06,01,6.90
2015,04,29,06,02,6.90
2015,04,29,06,03,6.90
2015,04,29,06,04,6.90
2015,04,29,06,05,6.90
2015,04,29,06,06,6.90
2015,04,29,06,07,6.90
2015,04,29,06,08,6.90
2015,04,29,06,09,6.90
2015,04,29,06,10,6.90
2015,04,29,06,11,6.90
2015,04,29,06,12,7.00
2015,04,29,06,13,7.00
2015,04,29,06,14,7.00
2015,04,29,06,15,7.00
2015,04,29,06,16,7.00
2015,04,29,06,17,7.00
2015,04,29,06,18,7.00
2015,04,29,06,19,7.10
2015,04,29,06,20,7.10
2015,04,29,06,21,7.20
2015,04,29,06,22,7.20
2015,04,29,06,23,7.20
2015,04,29,06,24,7.20
2015,04,29,06,25,7.30
2015,04,29,06,26,7.30
2015,04,29,06,27,7.30
2015,04,29,06,28,7.30
2015,04,29,06,29,7.40
2015,04,29,06,30,7.40
2015,04,29,06,31,7.40
2015,04,29,06,32,7.40
2015,04,29,06,33,7.40
2015,04,29,06,34,7.40
2015,04,29,06,35,7.50
2015,04,29,06,36,7.50
2015,04,29,06,37,7.50
2015,04,29,06,38,7.60
2015,04,29,06,39,7.60
2015,04,29,06,40,7.70
2015,04,29,06,41,7.70
2015,04,29,06,42,7.80
2015,04,29,06,43,7.90
2015,04,29,06,44,8.00
2015,04,29,06,45,8.10
2015,04,29,06,46,8.20
2015,04,29,06,47,8.30
2015,04,29,06,48,8.30
2015,04,29,06,49,8.40
2015,04,29,06,50,8.40
2015,04,29,06,51,8.50
2015,04,29,06,52,8.50
2015,04,29,06,53,8.60
2015,04,29,06,54,8.70
2015,04,29,06,55,8.70
2015,04,29,06,56,8.80
2015,04,29,06,57,8.80
2015,04,29,06,58,8.80
2015,04,29,06,59,8.80
2015,04,29,07,00,8.90
2015,04,29,07,01,9.00
2015,04,29,07,02,9.10
2015,04,29,07,03,9.10
2015,04,29,07,04,9.20
2015,04,29,07,05,9.20
2015,04,29,07,06,9.30
2015,04,29,07,07,9.30
2015,04,29,07,08,9.30
2015,04,29,07,09,9.40
2015,04,29,07,10,9.40
2015,04,29,07,11,9.40
2015,04,29,07,12,9.50
2015,04,29,07,13,9.50
2015,04,29,07,14,9.50
2015,04,29,07,15,9.60
2015,04,29,07,16,9.60
2015,04,29,07,17,9.60
2015,04,29,07,18,9.70
2015,04,29,07,19,9.70
2015,04,29,07,20,9.80
2015,04,29,07,21,9.80
2015,04,29,07,22,9.80
2015,04,29,07,23,9.80
2015,04,29,07,24,9.80
2015,04,29,07,25,9.80
2015,04,29,07,26,9.80
2015,04,29,07,27,9.80
2015,04,29,07,28,9.80
2015,04,29,07,29,9.80
2015,04,29,07,30,9.90
2015,04,29,07,31,9.90
2015,04,29,07,32,9.90
2015,04,29,07,33,10.00
2015,04,29,07,34,10.10
2015,04,29,07,35,10.10
2015,04,29,07,36,10.10
2015,04,29,07,37,10.10
2015,04,29,07,38,10.10
2015,04,29,07,39,10.10
2015,04,29,07,40,10.10
2015,04,29,07,41,10.10
2015,04,29,07,42,10.20
2015,04,29,07,43,10.20
2015,04,29,07,44,10.20
2015,04,29,07,45,10.20
2015,04,29,07,46,10.30
2015,04,29,07,47,10.30
2015,04,29,07,48,10.30
2015,04,29,07,49,10.30
2015,04,29,07,50,10.40
2015,04,29,07,51,10.40
2015,04,29,07,52,10.40
2015,04,29,07,53,10.40
2015,04,29,07,54,10.40
2015,04,29,07,55,10.40
2015,04,29,07,56,10.50
2015,04,29,07,57,10.50
2015,04,29,07,58,10.50
2015,04,29,07,59,10.50
2015,04,29,08,00,10.40
2015,04,29,08,01,10.40
2015,04,29,08,02,10.40
2015,04,29,08,03,10.40
2015,04,29,08,04,10.40
2015,04,29,08,05,10.40
2015,04,29,08,06,10.40
2015,04,29,08,07,10.40
2015,04,29,08,08,10.40
2015,04,29,08,09,10.40
2015,04,29,08,10,10.50
2015,04,29,08,11,10.50
2015,04,29,08,12,10.60
2015,04,29,08,13,10.60
2015,04,29,08,14,10.60
2015,04,29,08,15,10.60
2015,04,29,08,16,10.60
2015,04,29,08,17,10.70
2015,04,29,08,18,10.70
2015,04,29,08,19,10.70
2015,04,29,08,20,10.70
2015,04,29,08,21,10.70
2015,04,29,08,22,10.70
2015,04,29,08,23,10.80
2015,04,29,08,24,10.80
2015,04,29,08,25,10.80
2015,04,29,08,26,10.80
2015,04,29,08,27,10.80
2015,04,29,08,28,10.90
2015,04,29,08,29,10.90
2015,04,29,08,30,10.90
2015,04,29,08,31,11.00
2015,04,29,08,32,11.00
2015,04,29,08,33,11.00
2015,04,29,08,34,11.00
2015,04,29,08,35,11.00
2015,04,29,08,36,11.00
2015,04,29,08,37,11.10
2015,04,29,08,38,11.10
2015,04,29,08,39,11.10
2015,04,29,08,40,11.10
2015,04,29,08,41,11.10
2015,04,29,08,42,11.10
2015,04,29,08,43,11.10
2015,04,29,08,44,11.20
2015,04,29,08,45,11.20
2015,04,29,08,46,11.30
2015,04,29,08,47,11.30
2015,04,29,08,48,11.40
2015,04,29,08,49,11.40
2015,04,29,08,50,11.50
2015,04,29,08,51,11.50
2015,04,29,08,52,11.50
2015,04,29,08,53,11.60
2015,04,29,08,54,11.60
2015,04,29,08,55,11.60
2015,04,29,08,56,11.60
2015,04,29,08,57,11.70
2015,04,29,08,58,11.70
2015,04,29,08,59,11.70
2015,04,29,09,00,11.70
2015,04,29,09,01,11.70
2015,04,29,09,02,11.70
2015,04,29,09,03,11.70
2015,04,29,09,04,11.70
2015,04,29,09,05,11.60
2015,04,29,09,06,11.60
2015,04,29,09,07,11.60
2015,04,29,09,08,11.60
2015,04,29,09,09,11.70
2015,04,29,09,10,11.70
2015,04,29,09,11,11.70
2015,04,29,09,12,11.70
2015,04,29,09,13,11.70
2015,04,29,09,14,11.70
2015,04,29,09,15,11.70
2015,04,29,09,16,11.80
2015,04,29,09,17,11.80
2015,04,29,09,18,11.80
2015,04,29,09,19,11.80
2015,04,29,09,20,11.80
2015,04,29,09,21,11.80
2015,04,29,09,22,11.90
2015,04,29,09,23,11.90
2015,04,29,09,24,11.90
2015,04,29,09,25,11.80
2015,04,29,09,26,11.80
2015,04,29,09,27,11.80
2015,04,29,09,28,11.80
2015,04,29,09,29,11.80
2015,04,29,09,30,11.90
2015,04,29,09,31,11.90
2015,04,29,09,32,12.00
2015,04,29,09,33,12.10
2015,04,29,09,34,12.20
2015,04,29,09,35,12.30
2015,04,29,09,36,12.30
2015,04,29,09,37,12.40
2015,04,29,09,38,12.50
2015,04,29,09,39,12.60
2015,04,29,09,40,12.70
2015,04,29,09,41,12.80
2015,04,29,09,42,12.90
2015,04,29,09,43,12.80
2015,04,29,09,44,12.80
2015,04,29,09,45,12.90
2015,04,29,09,46,12.80
2015,04,29,09,47,12.80
2015,04,29,09,48,12.80
2015,04,29,09,49,12.90
2015,04,29,09,50,12.90
2015,04,29,09,51,12.90
2015,04,29,09,52,12.90
2015,04,29,09,53,12.90
2015,04,29,09,54,13.00
2015,04,29,09,55,13.00
2015,04,29,09,56,13.10
2015,04,29,09,57,13.20
2015,04,29,09,58,13.20
2015,04,29,09,59,13.20
2015,04,29,10,00,13.20
2015,04,29,10,01,13.20
2015,04,29,10,02,13.20
2015,04,29,10,03,13.30
2015,04,29,10,04,13.40
2015,04,29,10,05,13.50
2015,04,29,10,06,13.60
2015,04,29,10,07,13.70
2015,04,29,10,08,13.80
2015,04,29,10,09,13.90
2015,04,29,10,10,13.90
2015,04,29,10,11,13.90
2015,04,29,10,12,13.90
2015,04,29,10,13,13.80
2015,04,29,10,14,13.80
2015,04,29,10,15,13.70
2015,04,29,10,16,13.60
2015,04,29,10,17,13.60
2015,04,29,10,18,13.60
2015,04,29,10,19,13.60
2015,04,29,10,20,13.60
2015,04,29,10,21,13.60
2015,04,29,10,22,13.60
2015,04,29,10,23,13.50
2015,04,29,10,24,13.50
2015,04,29,10,25,13.40
2015,04,29,10,26,13.30
2015,04,29,10,27,13.40
2015,04,29,10,28,13.30
2015,04,29,10,29,13.20
2015,04,29,10,30,13.20
2015,04,29,10,31,13.10
2015,04,29,10,32,13.10
2015,04,29,10,33,13.20
2015,04,29,10,34,13.30
2015,04,29,10,35,13.30
2015,04,29,10,36,13.30
2015,04,29,10,37,13.30
2015,04,29,10,38,13.30
2015,04,29,10,39,13.30
2015,04,29,10,40,13.30
2015,04,29,10,41,13.40
2015,04,29,10,42,13.40
2015,04,29,10,43,13.50
2015,04,29,10,44,13.50
2015,04,29,10,45,13.60
2015,04,29,10,46,13.60
2015,04,29,10,47,13.70
2015,04,29,10,48,13.70
2015,04,29,10,49,13.90
2015,04,29,10,50,13.90
2015,04,29,10,51,14.00
2015,04,29,10,52,14.20
2015,04,29,10,53,14.30
2015,04,29,10,54,14.30
2015,04,29,10,55,14.30
2015,04,29,10,56,14.20
2015,04,29,10,57,14.20
2015,04,29,10,58,14.20
2015,04,29,10,59,14.20
2015,04,29,11,00,14.20
2015,04,29,11,01,14.30
2015,04,29,11,02,14.30
2015,04,29,11,03,14.50
2015,04,29,11,04,14.50
2015,04,29,11,05,14.60
2015,04,29,11,06,14.60
2015,04,29,11,07,14.60
2015,04,29,11,08,14.60
2015,04,29,11,09,14.60
2015,04,29,11,10,14.60
2015,04,29,11,11,14.70
2015,04,29,11,12,14.80
2015,04,29,11,13,14.90
2015,04,29,11,14,15.00
2015,04,29,11,15,15.10
2015,04,29,11,16,15.20
2015,04,29,11,17,15.30
2015,04,29,11,18,15.40
2015,04,29,11,19,15.50
2015,04,29,11,20,15.70
2015,04,29,11,21,15.70
2015,04,29,11,22,15.60
2015,04,29,11,23,15.60
2015,04,29,11,24,15.60
2015,04,29,11,25,15.50
2015,04,29,11,26,15.50
2015,04,29,11,27,15.50
2015,04,29,11,28,15.50
2015,04,29,11,29,15.50
2015,04,29,11,30,15.60
2015,04,29,11,31,15.60
2015,04,29,11,32,15.60
2015,04,29,11,33,15.50
2015,04,29,11,34,15.50
2015,04,29,11,35,15.50
2015,04,29,11,36,15.50
2015,04,29,11,37,15.50
2015,04,29,11,38,15.50
2015,04,29,11,39,15.50
2015,04,29,11,40,15.60
2015,04,29,11,41,15.50
2015,04,29,11,42,15.50
2015,04,29,11,43,15.60
2015,04,29,11,44,15.60
2015,04,29,11,45,15.50
2015,04,29,11,46,15.40
2015,04,29,11,47,15.40
2015,04,29,11,48,15.40
2015,04,29,11,49,15.30
2015,04,29,11,50,15.30
2015,04,29,11,51,15.40
2015,04,29,11,52,15.30
2015,04,29,11,53,15.30
2015,04,29,11,54,15.20
2015,04,29,11,55,15.20
2015,04,29,11,56,15.20
2015,04,29,11,57,15.30
2015,04,29,11,58,15.30
2015,04,29,11,59,15.20
2015,04,29,12,00,15.20
2015,04,29,12,01,15.20
2015,04,29,12,02,15.30
2015,04,29,12,03,15.40
2015,04,29,12,04,15.40
2015,04,29,12,05,15.50
2015,04,29,12,06,15.50
2015,04,29,12,07,15.60
2015,04,29,12,08,15.60
2015,04,29,12,09,15.60
2015,04,29,12,10,15.50
2015,04,29,12,11,15.40
2015,04,29,12,12,15.40
2015,04,29,12,13,15.30
2015,04,29,12,14,15.20
2015,04,29,12,15,15.10
2015,04,29,12,16,15.00
2015,04,29,12,17,15.00
2015,04,29,12,18,15.00
2015,04,29,12,19,15.00
2015,04,29,12,20,15.00
2015,04,29,12,21,15.00
2015,04,29,12,22,15.20
2015,04,29,12,23,15.20
2015,04,29,12,24,15.30
2015,04,29,12,25,15.30
2015,04,29,12,26,15.30
2015,04,29,12,27,15.30
2015,04,29,12,28,15.30
2015,04,29,12,29,15.20
2015,04,29,12,30,15.10
2015,04,29,12,31,15.00
2015,04,29,12,32,15.00
2015,04,29,12,33,14.90
2015,04,29,12,34,14.70
2015,04,29,12,35,14.70
2015,04,29,12,36,14.60
2015,04,29,12,37,14.50
2015,04,29,12,38,14.40
2015,04,29,12,39,14.40
2015,04,29,12,40,14.40
2015,04,29,12,41,14.40
2015,04,29,12,42,14.40
2015,04,29,12,43,14.40
2015,04,29,12,44,14.40
2015,04,29,12,45,14.50
2015,04,29,12,46,14.60
2015,04,29,12,47,14.60
2015,04,29,12,48,14.60
2015,04,29,12,49,14.70
2015,04,29,12,50,14.70
2015,04,29,12,51,14.80
2015,04,29,12,52,14.80
2015,04,29,12,53,14.90
2015,04,29,12,54,14.90
2015,04,29,12,55,14.90
2015,04,29,12,56,14.80
2015,04,29,12,57,14.90
2015,04,29,12,58,15.00
2015,04,29,12,59,14.90
2015,04,29,13,00,14.90
2015,04,29,13,01,14.90
2015,04,29,13,02,14.80
2015,04,29,13,03,14.90
2015,04,29,13,04,15.00
2015,04,29,13,05,15.00
2015,04,29,13,06,15.00
2015,04,29,13,07,15.00
2015,04,29,13,08,15.00
2015,04,29,13,09,15.00
2015,04,29,13,10,15.00
2015,04,29,13,11,15.00
2015,04,29,13,12,15.00
2015,04,29,13,13,15.00
2015,04,29,13,14,15.00
2015,04,29,13,15,15.00
2015,04,29,13,16,15.00
2015,04,29,13,17,15.00
2015,04,29,13,18,15.00
2015,04,29,13,19,15.00
2015,04,29,13,20,15.00
2015,04,29,13,21,14.90
2015,04,29,13,22,14.80
2015,04,29,13,23,14.70
2015,04,29,13,24,14.60
2015,04,29,13,25,14.60
2015,04,29,13,26,14.50
2015,04,29,13,27,14.40
2015,04,29,13,28,14.40
2015,04,29,13,29,14.30
2015,04,29,13,30,14.20
2015,04,29,13,31,14.10
2015,04,29,13,32,14.10
2015,04,29,13,33,14.10
2015,04,29,13,34,14.20
2015,04,29,13,35,14.20
2015,04,29,13,36,14.20
2015,04,29,13,37,14.30
2015,04,29,13,38,14.30
2015,04,29,13,39,14.30
2015,04,29,13,40,14.40
2015,04,29,13,41,14.40
2015,04,29,13,42,14.40
2015,04,29,13,43,14.50
2015,04,29,13,44,14.60
2015,04,29,13,45,14.70
2015,04,29,13,46,14.80
2015,04,29,13,47,15.00
2015,04,29,13,48,15.00
2015,04,29,13,49,15.00
2015,04,29,13,50,15.00
2015,04,29,13,51,15.00
2015,04,29,13,52,15.00
2015,04,29,13,53,15.00
2015,04,29,13,54,15.00
2015,04,29,13,55,15.00
2015,04,29,13,56,15.00
2015,04,29,13,57,15.00
2015,04,29,13,58,15.10
2015,04,29,13,59,15.00
2015,04,29,14,00,15.00
2015,04,29,14,01,15.00
2015,04,29,14,02,15.10
2015,04,29,14,03,15.10
2015,04,29,14,04,15.20
2015,04,29,14,05,15.30
2015,04,29,14,06,15.30
2015,04,29,14,07,15.40
2015,04,29,14,08,15.40
2015,04,29,14,09,15.40
2015,04,29,14,10,15.40
2015,04,29,14,11,15.50
2015,04,29,14,12,15.50
2015,04,29,14,13,15.60
2015,04,29,14,14,15.60
2015,04,29,14,15,15.50
2015,04,29,14,16,15.50
2015,04,29,14,17,15.40
2015,04,29,14,18,15.20
2015,04,29,14,19,15.10
2015,04,29,14,20,15.00
2015,04,29,14,21,15.00
2015,04,29,14,22,14.90
2015,04,29,14,23,14.80
2015,04,29,14,24,14.70
2015,04,29,14,25,14.70
2015,04,29,14,26,14.60
2015,04,29,14,27,14.50
2015,04,29,14,28,14.50
2015,04,29,14,29,14.40
2015,04,29,14,30,14.40
2015,04,29,14,31,14.30
2015,04,29,14,32,14.30
2015,04,29,14,33,14.30
2015,04,29,14,34,14.20
2015,04,29,14,35,14.20
2015,04,29,14,36,14.10
2015,04,29,14,37,14.00
2015,04,29,14,38,14.00
2015,04,29,14,39,13.90
2015,04,29,14,40,13.90
2015,04,29,14,41,13.90
2015,04,29,14,42,13.90
2015,04,29,14,43,13.80
2015,04,29,14,44,13.80
2015,04,29,14,45,13.80
2015,04,29,14,46,13.90
2015,04,29,14,47,13.90
2015,04,29,14,48,13.90
2015,04,29,14,49,13.90
2015,04,29,14,50,13.90
2015,04,29,14,51,14.00
2015,04,29,14,52,14.10
2015,04,29,14,53,14.10
2015,04,29,14,54,14.20
2015,04,29,14,55,14.20
2015,04,29,14,56,14.30
2015,04,29,14,57,14.30
2015,04,29,14,58,14.30
2015,04,29,14,59,14.30
2015,04,29,15,00,14.30
2015,04,29,15,01,14.30
2015,04,29,15,02,14.30
2015,04,29,15,03,14.30
2015,04,29,15,04,14.20
2015,04,29,15,05,14.20
2015,04,29,15,06,14.20
2015,04,29,15,07,14.20
2015,04,29,15,08,14.10
2015,04,29,15,09,14.10
2015,04,29,15,10,14.00
2015,04,29,15,11,13.90
2015,04,29,15,12,13.90
2015,04,29,15,13,13.80
2015,04,29,15,14,13.80
2015,04,29,15,15,13.70
2015,04,29,15,16,13.70
2015,04,29,15,17,13.70
2015,04,29,15,18,13.70
2015,04,29,15,19,13.60
2015,04,29,15,20,13.60
2015,04,29,15,21,13.60
2015,04,29,15,22,13.60
2015,04,29,15,23,13.60
2015,04,29,15,24,13.60
2015,04,29,15,25,13.50
2015,04,29,15,26,13.50
2015,04,29,15,27,13.40
2015,04,29,15,28,13.40
2015,04,29,15,29,13.40
2015,04,29,15,30,13.40
2015,04,29,15,31,13.50
2015,04,29,15,32,13.50
2015,04,29,15,33,13.50
2015,04,29,15,34,13.50
2015,04,29,15,35,13.50
2015,04,29,15,36,13.50
2015,04,29,15,37,13.60
2015,04,29,15,38,13.60
2015,04,29,15,39,13.70
2015,04,29,15,40,13.80
2015,04,29,15,41,13.80
2015,04,29,15,42,13.80
2015,04,29,15,43,13.90
2015,04,29,15,44,13.90
2015,04,29,15,45,13.90
2015,04,29,15,46,13.90
2015,04,29,15,47,13.90
2015,04,29,15,48,13.90
2015,04,29,15,49,13.90
2015,04,29,15,50,14.00
2015,04,29,15,51,14.10
2015,04,29,15,52,14.10
2015,04,29,15,53,14.20
2015,04,29,15,54,14.30
2015,04,29,15,55,14.40
2015,04,29,15,56,14.50
2015,04,29,15,57,14.60
2015,04,29,15,58,14.60
2015,04,29,15,59,14.70
2015,04,29,16,00,14.80
2015,04,29,16,01,15.00
2015,04,29,16,02,15.00
2015,04,29,16,03,15.00
2015,04,29,16,04,15.00
2015,04,29,16,05,15.10
2015,04,29,16,06,15.10
2015,04,29,16,07,15.20
2015,04,29,16,08,15.10
2015,04,29,16,09,15.00
2015,04,29,16,10,15.00
2015,04,29,16,11,15.00
2015,04,29,16,12,15.00
2015,04,29,16,13,15.00
2015,04,29,16,14,15.00
2015,04,29,16,15,15.00
2015,04,29,16,16,14.90
2015,04,29,16,17,14.90
2015,04,29,16,18,14.80
2015,04,29,16,19,14.80
2015,04,29,16,20,14.70
2015,04,29,16,21,14.70
2015,04,29,16,22,14.60
2015,04,29,16,23,14.50
2015,04,29,16,24,14.50
2015,04,29,16,25,14.40
2015,04,29,16,26,14.40
2015,04,29,16,27,14.30
2015,04,29,16,28,14.20
2015,04,29,16,29,14.20
2015,04,29,16,30,14.20
2015,04,29,16,31,14.20
2015,04,29,16,32,14.10
2015,04,29,16,33,14.10
2015,04,29,16,34,14.10
2015,04,29,16,35,14.00
2015,04,29,16,36,14.00
2015,04,29,16,37,13.90
2015,04,29,16,38,13.90
2015,04,29,16,39,13.90
2015,04,29,16,40,13.90
2015,04,29,16,41,13.80
2015,04,29,16,42,13.80
2015,04,29,16,43,13.80
2015,04,29,16,44,13.80
2015,04,29,16,45,13.80
2015,04,29,16,46,13.80
2015,04,29,16,47,13.70
2015,04,29,16,48,13.80
2015,04,29,16,49,13.80
2015,04,29,16,50,13.70
2015,04,29,16,51,13.80
2015,04,29,16,52,13.80
2015,04,29,16,53,13.70
2015,04,29,16,54,13.70
2015,04,29,16,55,13.70
2015,04,29,16,56,13.70
2015,04,29,16,57,13.70
2015,04,29,16,58,13.70
2015,04,29,16,59,13.70
2015,04,29,17,00,13.70
2015,04,29,17,01,13.70
2015,04,29,17,02,13.70
2015,04,29,17,03,13.60
2015,04,29,17,04,13.60
2015,04,29,17,05,13.60
2015,04,29,17,06,13.70
2015,04,29,17,07,13.70
2015,04,29,17,08,13.70
2015,04,29,17,09,13.70
2015,04,29,17,10,13.70
2015,04,29,17,11,13.70
2015,04,29,17,12,13.80
2015,04,29,17,13,13.80
2015,04,29,17,14,13.90
2015,04,29,17,15,13.90
2015,04,29,17,16,13.90
2015,04,29,17,17,14.00
2015,04,29,17,18,14.00
2015,04,29,17,19,14.00
2015,04,29,17,20,14.00
2015,04,29,17,21,14.00
2015,04,29,17,22,14.00
2015,04,29,17,23,14.10
2015,04,29,17,24,14.10
2015,04,29,17,25,14.10
2015,04,29,17,26,14.10
2015,04,29,17,27,14.10
2015,04,29,17,28,14.10
2015,04,29,17,29,14.20
2015,04,29,17,30,14.20
2015,04,29,17,31,14.20
2015,04,29,17,32,14.20
2015,04,29,17,33,14.30
2015,04,29,17,34,14.30